Cosmos 1743 Rocket - Orbit

View from above orbital plane
View from above orbital plane
View from above satellite
View from above satellite

Ground track
Ground track

The orbit data is extracted from the following two-line orbital elements,

1 16720U 86034B   13140.71510887  .00000360  00000-0  41848-4 0  1342
2 16720 082.5542 188.4465 0019347 332.9402 164.7621 14.82407571458662
Epoch (UTC): 20 May 2013 17:09:45
Eccentricity: 0.0019347
inclination: 82.5542°
perigee height: 608 km
apogee height: 635 km
right ascension of ascending node: 188.4465°
argument of perigee: 332.9402°
revolutions per day: 14.82407571
mean anomaly at epoch: 164.7621°
orbit number at epoch: 45866

The dashed part of the orbit path shows where the satellite is in the earth's shadow,  

Developed and maintained by Chris Peat, Heavens-Above GmbH. Please read the updated FAQ before sending e-mail. Imprint. DLR